Weather History for Madisonville, KY

Change the Weather History Date:

Wednesday, November 27, 2013

  Actual Average (KOWB) Record (KOWB)
Temperature  
Mean Temperature 26 °F -  
Max Temperature 33 °F 54 °F 73 °F (1989)
Min Temperature 18 °F 38 °F 8 °F (1938)
Degree Days  
Heating Degree Days 40    
Moisture  
Dew Point 14 °F    
Average Humidity 63    
Maximum Humidity 89    
Minimum Humidity 43    
Precipitation  
Precipitation 0.00 in - - ()
Sea Level Pressure  
Sea Level Pressure 30.25 in    
Wind  
Wind Speed 11 mph (NNW)    
Max Wind Speed 18 mph    
Max Gust Speed 25 mph    
Visibility 10 miles    
Events      
Averages and records for this station are not official NWS values.
T = Trace of Precipitation, MM = Missing Value Source: NWS Daily Summary

Daily Weather History Graph

Daily Weather History Graph

Search for Another Location

Airport:

Trip Planner

Search our weather history database for the weather conditions in past years. The results will help you decide how hot, cold, wet, or windy it might be!

Date:

Astronomy

Nov. 27, 2013 Rise Set
Actual Time 6:41 AM CST 4:32 PM CST
Civil Twilight 6:12 AM CST 5:01 PM CST
Nautical Twilight 5:40 AM CST 5:33 PM CST
Astronomical Twilight 5:09 AM CST 6:04 PM CST
Moon 12:50 AM CST (11/27) 1:03 PM CST (11/27)
Length of Visible Light 10h 48m
Length of Day
9h 51m
Waning Crescent, 31% of the Moon is Illuminated
Nov 27
Waning Crescent
Dec 2
New
Dec 9
First Quarter
Dec 17
Full
Dec 25
Last Quarter

Hourly Weather History & Observations

Time (CST) Temp. Windchill Dew Point Humidity Pressure Visibility Wind Dir Wind Speed Gust Speed Precip Events Conditions
12:15 AM 33.4 °F 24.3 °F 24.6 °F 70% 30.07 in 10.0 mi NNW 12.7 mph 21.9 mph N/A   Overcast
12:35 AM 32.5 °F 23.7 °F 23.2 °F 68% 30.07 in 10.0 mi NNW 11.5 mph 19.6 mph N/A   Overcast
12:55 AM 31.8 °F 20.2 °F 21.2 °F 65% 30.08 in 10.0 mi NNW 18.4 mph 25.3 mph N/A   Overcast
1:15 AM 30.4 °F 20.0 °F 19.0 °F 63% 30.09 in 10.0 mi NNW 13.8 mph 21.9 mph N/A   Overcast
1:35 AM 29.8 °F 18.9 °F 18.5 °F 63% 30.09 in 10.0 mi NNW 15.0 mph 21.9 mph N/A   Overcast
1:55 AM 29.3 °F 18.2 °F 19.0 °F 66% 30.10 in 10.0 mi NW 15.0 mph 20.7 mph N/A   Overcast
2:15 AM 28.6 °F 16.0 °F 18.0 °F 64% 30.12 in 10.0 mi NNW 18.4 mph 23.0 mph N/A   Overcast
2:35 AM 28.0 °F 17.0 °F 17.6 °F 65% 30.12 in 10.0 mi NNW 13.8 mph 23.0 mph N/A   Overcast
2:55 AM 27.5 °F 15.0 °F 16.9 °F 64% 30.12 in 10.0 mi NNW 17.3 mph 25.3 mph N/A   Overcast
3:15 AM 27.3 °F 18.4 °F 17.8 °F 67% 30.13 in 10.0 mi NW 9.2 mph 17.3 mph N/A   Overcast
3:35 AM 26.6 °F 15.7 °F 17.1 °F 67% 30.13 in 10.0 mi NNW 12.7 mph 19.6 mph N/A   Overcast
3:55 AM 26.1 °F 15.6 °F 16.9 °F 68% 30.13 in 10.0 mi NNW 11.5 mph 19.6 mph N/A   Overcast
4:15 AM 25.5 °F 14.3 °F 16.5 °F 69% 30.14 in 10.0 mi NNW 12.7 mph 19.6 mph N/A   Mostly Cloudy
4:35 AM 24.8 °F 14.0 °F 16.2 °F 70% 30.14 in 10.0 mi NNW 11.5 mph 18.4 mph N/A   Clear
4:55 AM 24.6 °F 13.8 °F 16.2 °F 70% 30.16 in 10.0 mi NNW 11.5 mph - N/A   Clear
5:15 AM 24.3 °F 12.7 °F 16.0 °F 71% 30.16 in 10.0 mi NNW 12.7 mph 19.6 mph N/A   Clear
5:35 AM 23.9 °F 13.5 °F 15.8 °F 71% 30.17 in 10.0 mi NNW 10.4 mph 18.4 mph N/A   Clear
5:55 AM 23.7 °F 12.1 °F 15.4 °F 71% 30.17 in 10.0 mi NNW 12.7 mph 20.7 mph N/A   Clear
6:15 AM 23.0 °F 11.7 °F 15.3 °F 72% 30.18 in 10.0 mi NNW 11.5 mph - N/A   Clear
6:35 AM 23.0 °F 12.4 °F 14.7 °F 71% 30.19 in 10.0 mi NNW 10.4 mph 17.3 mph N/A   Clear
6:55 AM 22.6 °F 11.9 °F 14.7 °F 72% 30.20 in 10.0 mi NNW 10.4 mph - N/A   Clear
7:15 AM 22.8 °F 10.9 °F 14.7 °F 71% 30.21 in 10.0 mi NNW 12.7 mph 17.3 mph N/A   Clear
7:35 AM 23.0 °F 11.7 °F 14.5 °F 70% 30.22 in 10.0 mi NNW 11.5 mph 18.4 mph N/A   Clear
7:55 AM 23.5 °F 11.8 °F 14.7 °F 69% 30.22 in 10.0 mi NNW 12.7 mph 19.6 mph N/A   Clear
8:15 AM 23.9 °F 12.3 °F 14.7 °F 68% 30.22 in 10.0 mi NNW 12.7 mph 24.2 mph N/A   Clear
8:35 AM 23.9 °F 11.2 °F 12.9 °F 63% 30.23 in 10.0 mi North 15.0 mph 18.4 mph N/A   Clear
8:55 AM 25.3 °F 12.6 °F 13.1 °F 60% 30.24 in 10.0 mi North 16.1 mph 23.0 mph N/A   Clear
9:15 AM 25.5 °F 15.5 °F 13.3 °F 60% 30.24 in 10.0 mi NNW 10.4 mph 16.1 mph N/A   Clear
9:35 AM 25.5 °F 13.3 °F 12.2 °F 57% 30.25 in 10.0 mi North 15.0 mph 20.7 mph N/A   Clear
9:55 AM 26.4 °F 15.0 °F 12.7 °F 56% 30.25 in 10.0 mi NNW 13.8 mph - N/A   Clear
10:15 AM 27.1 °F 14.9 °F 13.1 °F 56% 30.26 in 10.0 mi NNW 16.1 mph 25.3 mph N/A   Clear
10:35 AM 27.3 °F 16.6 °F 12.6 °F 54% 30.25 in 10.0 mi NNW 12.7 mph 20.7 mph N/A   Clear
10:55 AM 27.3 °F 17.7 °F 12.2 °F 53% 30.25 in 10.0 mi NW 10.4 mph 19.6 mph N/A   Clear
11:15 AM 28.2 °F 16.3 °F 12.6 °F 52% 30.25 in 10.0 mi NNW 16.1 mph 23.0 mph N/A   Clear
11:35 AM 28.6 °F 17.7 °F 11.8 °F 50% 30.24 in 10.0 mi NNW 13.8 mph 23.0 mph N/A   Clear
11:55 AM 28.9 °F 18.6 °F 12.2 °F 50% 30.25 in 10.0 mi NNW 12.7 mph 24.2 mph N/A   Clear
12:15 PM 29.5 °F 18.4 °F 12.2 °F 49% 30.25 in 10.0 mi NNW 15.0 mph 23.0 mph N/A   Clear
12:35 PM 29.5 °F 18.4 °F 11.7 °F 48% 30.24 in 10.0 mi NW 15.0 mph 23.0 mph N/A   Clear
12:55 PM 29.8 °F 19.3 °F 11.7 °F 47% 30.25 in 10.0 mi NNW 13.8 mph 19.6 mph N/A   Clear
1:15 PM 29.8 °F 20.3 °F 10.9 °F 45% 30.25 in 10.0 mi NNW 11.5 mph 21.9 mph N/A   Clear
1:35 PM 30.0 °F 18.3 °F 10.8 °F 45% 30.25 in 10.0 mi NNW 17.3 mph 23.0 mph N/A   Clear
1:55 PM 30.0 °F 19.5 °F 10.8 °F 45% 30.25 in 10.0 mi NNW 13.8 mph - N/A   Clear
2:15 PM 30.4 °F 20.0 °F 10.9 °F 44% 30.26 in 10.0 mi NNW 13.8 mph 21.9 mph N/A   Clear
2:35 PM 30.4 °F 21.0 °F 10.4 °F 43% 30.27 in 10.0 mi NNW 11.5 mph 19.6 mph N/A   Clear
2:55 PM 30.4 °F 20.5 °F 10.6 °F 44% 30.28 in 10.0 mi NW 12.7 mph 17.3 mph N/A   Clear
3:15 PM 29.8 °F 19.3 °F 10.6 °F 45% 30.29 in 10.0 mi NNW 13.8 mph 19.6 mph N/A   Clear
3:35 PM 29.5 °F 21.8 °F 10.8 °F 46% 30.29 in 10.0 mi NNW 8.1 mph 17.3 mph N/A   Clear
3:55 PM 29.1 °F 20.6 °F 10.4 °F 46% 30.30 in 10.0 mi NNW 9.2 mph - N/A   Clear
4:15 PM 28.4 °F 19.1 °F 10.6 °F 47% 30.31 in 10.0 mi NNW 10.4 mph - N/A   Clear
4:35 PM 27.5 °F 20.2 °F 10.9 °F 50% 30.32 in 10.0 mi NW 6.9 mph - N/A   Clear
4:55 PM 26.2 °F 19.6 °F 11.3 °F 53% 30.31 in 10.0 mi NNW 5.8 mph - N/A   Clear
5:15 PM 26.4 °F 19.8 °F 11.7 °F 54% 30.32 in 10.0 mi NNW 5.8 mph - N/A   Clear
5:35 PM 25.7 °F 20.1 °F 11.7 °F 55% 30.33 in 10.0 mi NW 4.6 mph - N/A   Clear
5:55 PM 24.8 °F 20.5 °F 11.3 °F 57% 30.34 in 10.0 mi NW 3.5 mph - N/A   Clear
6:15 PM 24.8 °F 20.5 °F 11.7 °F 57% 30.34 in 10.0 mi NW 3.5 mph - N/A   Clear
6:35 PM 24.1 °F 19.7 °F 12.2 °F 61% 30.34 in 10.0 mi WNW 3.5 mph - N/A   Clear
6:55 PM 23.5 °F 19.1 °F 12.7 °F 63% 30.35 in 10.0 mi West 3.5 mph - N/A   Clear
7:15 PM 24.3 °F 19.9 °F 11.8 °F 59% 30.35 in 10.0 mi WNW 3.5 mph - N/A   Clear
7:35 PM 23.0 °F - 12.7 °F 65% 30.36 in 10.0 mi Calm Calm - N/A   Clear
7:55 PM 23.4 °F - 12.2 °F 62% 30.36 in 10.0 mi Calm Calm - N/A   Clear
8:15 PM 23.4 °F - 12.2 °F 62% 30.36 in 10.0 mi Calm Calm - N/A   Clear
8:35 PM 21.7 °F 17.0 °F 14.0 °F 72% 30.36 in 10.0 mi West 3.5 mph - N/A   Clear
8:55 PM 20.3 °F 15.4 °F 14.4 °F 78% 30.36 in 10.0 mi West 3.5 mph - N/A   Clear
9:15 PM 20.3 °F - 14.2 °F 77% 30.36 in 10.0 mi Calm Calm - N/A   Clear
9:35 PM 19.9 °F - 15.1 °F 81% 30.36 in 10.0 mi Calm Calm - N/A   Clear
9:55 PM 19.8 °F - 15.4 °F 83% 30.37 in 10.0 mi Calm Calm - N/A   Clear
10:15 PM 19.4 °F - 15.8 °F 86% 30.37 in 10.0 mi Calm Calm - N/A   Clear
10:35 PM 18.9 °F - 16.0 °F 89% 30.37 in 10.0 mi Calm Calm - N/A   Clear
10:55 PM 18.7 °F - 14.4 °F 83% 30.38 in 10.0 mi Calm Calm - N/A   Clear
11:15 PM 19.9 °F - 16.9 °F 88% 30.39 in 10.0 mi Calm Calm - N/A   Clear
11:35 PM 19.4 °F 12.8 °F 16.5 °F 89% 30.39 in 10.0 mi WSW 4.6 mph - N/A   Clear
11:55 PM 19.4 °F - 16.2 °F 87% 30.37 in 10.0 mi Calm Calm - N/A   Clear